logo Eve Who16,790,393 Characters
802,455 Corporations
8,572 Alliances

Home Pilots Corporations Alliances FAQ 

corp logocharacter image
Character:001 Reyes
Corporation:Caldari Provisions
Sec. Status:4.7
Links:zKillboard
EveSkillBoard
Eve-Search
Last Updated: 2018-09-21 06:21:51 | 559648114
Corp. History
 NameJoinedLeft
corp logoCaldari Provisions2013/08/28 18:37
corp logoDeadly Shadow Clan2013/05/15 17:432013/08/28 18:36
corp logoCaldari Provisions2013/05/15 17:422013/05/15 17:42
corp logoSuggy Duggy Son2013/04/11 10:442013/05/15 17:41
corp logoCaldari Provisions2012/08/16 01:532013/04/11 10:43
corp logoMartyr's Vengence2010/12/23 05:492012/08/16 01:52
corp logoCaldari Provisions2010/12/22 07:112010/12/23 05:48
corp logoKinetic Cartel2010/12/12 20:382010/12/22 07:10
corp logoCaldari Provisions2010/09/09 22:102010/12/12 20:37
corp logoToy Makers2009/12/26 00:052010/09/09 22:09
corp logoAdvanced Planetary Exports2009/12/11 16:292009/12/26 00:04
corp logoCaldari Provisions2009/12/11 05:172009/12/11 16:28
corp logoI.M.M2009/12/10 16:372009/12/11 05:16
corp logoCaldari Provisions2009/10/13 22:262009/12/10 16:36
corp logoDole Premium Bananas2009/10/07 06:212009/10/13 22:25
corp logoCaldari Provisions2009/10/06 22:142009/10/07 06:20
corp logoGalactic Exporters.2009/10/03 02:362009/10/06 22:13
corp logoGalactic Exporters2009/09/24 07:522009/10/03 02:35
corp logoCaldari Provisions2009/09/24 02:542009/09/24 07:51
corp logoWarsong Co.2009/09/18 09:132009/09/24 02:53
corp logoCaldari Provisions2009/08/29 20:452009/09/18 09:12
corp logoI.M.M2008/06/06 01:452009/08/29 20:44
corp logo300 Spartans2008/06/01 16:342008/06/06 01:44
corp logoDOWN THE PIPE2008/02/24 09:552008/06/01 16:33
corp logoState War Academy2007/12/16 02:112008/02/24 09:54


Any pilots, corporations, or alliances that relate to actual people or entities are purely coincidental.
7q/8ms Disclaimer A / C Brought to you by: Squizz Caphinator Forum Thread
EVE Online and the EVE logo are the registered trademarks of CCP hf. All rights are reserved worldwide. All other trademarks are the property of their respective owners. EVE Online, the EVE logo, EVE and all associated logos and designs are the intellectual property of CCP hf. All artwork, screenshots, characters, vehicles, storylines, world facts or other recognizable features of the intellectual property relating to these trademarks are likewise the intellectual property of CCP hf. CCP hf. has granted permission to evewho.com to use EVE Online and all associated logos and designs for promotional and information purposes on its website but does not endorse, and is not in any way affiliated with, evewho.com. CCP is in no way responsible for the content on or functioning of this website, nor can it be liable for any damage arising from the use of this website.